STARLINK-2096 (47376 NORAD) Tracking and Keplerian Element Data

This shows tracking and keplerian element data for the satellite.

Feedback or suggestion? Click here.




ElementValue
Catalog47376
NameSTARLINK-2096
Epoch Orbit175
Epoch Day101.91668981
Epoch Year2021
RAAN189.6764
Inclination53.0538
Eccentricity0.0001051
Argument of Perigee109.6035
Mean Anonmoly3.4802
Mean Motion15.06399487
Decay Rate-0.00032215
L11 47376U 21005AD 21101.91668981 -.00032215 00000-0 -21537-2 0 9993
L22 47376 53.0538 189.6764 0001051 109.6035 3.4802 15.06399487 1757

Live tracking and technical data element details for STARLINK-2096 (NORAD 47376). STARLINK-2096 can be tracked NOW for your location showing map with azimuth and elevation plus other details from your city location.

Track the satellite on the map from your city or location and see movement details for azimuth, elevation, latitude, longitude, range, height, and movement on the map or in text.







IsCatalogInMostPopularTable: catalog: 47376, numindb: 13
Update: records affected: 1



GetName: 47376 STARLINK-2096

Hit Count: updated at: Tue, 13 Apr 2021 05:13:04 GMT